Regional Weather Roundup
Issued by NWS Huntsville, AL

Home | Current Version | Previous Version | Text Only | Print | Product List | Glossary On
Versions: 1 2 3 4 5 6 7 8 9 10 11 12 13 14 15 16 17 18 19 20 21 22 23 24 25 26 27
000
ASUS44 KHUN 022310
RWRHUN

WEATHER ROUNDUP FOR THE TENNESSEE VALLEY
NATIONAL WEATHER SERVICE HUNTSVILLE AL
500 PM CST FRI DEC 02 2016

ALZ001>004-030000-
NORTHWEST ALABAMA

CITY           SKY/WX    TMP DP  RH WIND       PRES   REMARKS
COURTLAND HCN    N/A     52 N/A N/A W5          N/A
RUSSELLVILLE     N/A     52 N/A N/A MISG        N/A
SHOALS AIRPORT CLEAR     55  30  38 CALM      30.27R
SHOALS TVA RES   N/A     55 N/A N/A MISG        N/A
$$

ALZ005>007-016-030000-
NORTH CENTRAL ALABAMA

CITY           SKY/WX    TMP DP  RH WIND       PRES   REMARKS
CULLMAN AG STN   N/A     52 N/A N/A CALM        N/A
DECATUR AP     CLEAR     51  36  56 CALM      30.27R
HUNTSVILLE AP  PTCLDY    55  35  47 CALM      30.26R
MERIDIANVILLE  CLEAR     50  32  50 CALM      30.26R
REDSTONE ARSN  CLEAR     51  33  50 CALM      30.25R
VINEMONT AP    FAIR      47  33  59 CALM      30.28R
$$

ALZ008>010-030000-
NORTHEAST ALABAMA

CITY           SKY/WX    TMP DP  RH WIND       PRES   REMARKS
ALBERTVILLE    CLOUDY    52  36  54 NW5       30.25R
FORT PAYNE     CLOUDY    50  30  46 CALM      30.25R
SCOTTSBORO AP  CLOUDY    50  32  50 CALM      30.26R
SCOTTSBORO HCN   N/A     50 N/A N/A MISG        N/A
VALLEY HEAD      N/A     48 N/A N/A MISG        N/A
$$

TNZ076-096-097-030000-
SOUTHEASTERN MIDDLE TENNESSEE

CITY           SKY/WX    TMP DP  RH WIND       PRES   REMARKS
TULLAHOMA      CLEAR     46  27  46 CALM      30.26S
WINCHESTER     CLEAR     52  30  43 CALM      30.26R
$$

...SURROUNDING SITES...

CITY           SKY/WX    TMP DP  RH WIND       PRES   REMARKS
ATLANTA        PTCLDY    54  29  38 NW8       30.23R
ANNISTON       CLEAR     50  34  54 CALM      30.25S
BIRMINGHAM     PTCLDY    54  32  43 CALM      30.27R
CHATTANOOGA    CLOUDY    53  27  36 NW6       30.25R
CORINTH        FAIR      52  30  43 CALM      30.25S
DALTON         CLOUDY    50  32  50 CALM      30.25R
GADSDEN        CLEAR     53  30  41 CALM      30.26S
GOLDEN TRNGL   CLOUDY    55  32  41 CALM      30.21S
HALEYVILLE     FAIR      49  33  54 CALM      30.27S
JACKSON TN     PTCLDY    51  37  58 CALM      30.27S
MEMPHIS        CLOUDY    56  33  42 N3        30.26S
NASHVILLE      PTCLDY    51  28  41 N8        30.27R
OXFORD MS      FAIR      48  36  61 CALM      30.28R
ROME           CLOUDY    52  31  44 CALM      30.24R
SAVANNAH       CLEAR     52  36  54 CALM      30.26R
TUPELO         CLEAR     55  31  39 CALM      30.25S
TUSCALOOSA     CLEAR     53  31  42 NE5       30.24S
$$

...GULF COAST WEATHER...

CITY           SKY/WX    TMP DP  RH WIND       PRES   REMARKS
GULFPORT       CLOUDY    62  39  42 E6        30.19F
PASCAGOULA     CLOUDY    58  37  45 CALM      30.21R
MOBILE         CLOUDY    59  36  42 N5        30.21R
GULF SHORES    CLOUDY    59  37  43 N3        30.19S
PENSACOLA      CLOUDY    59  37  44 N5        30.19R
DESTIN         CLOUDY    64  34  32 N5        30.19R
PANAMA CITY    CLOUDY    61  36  39 NE3       30.16F
APPALACHICOLA  MOCLDY    63  33  32 NE6       30.16R
$$





USA.gov is the U.S. government's official web portal to all federal, state and local government web resources and services.